#timestamp,LO_Frequency,Hit,StdDev 
1458565215.4,286046998.5,N
1458565235.2,286047000.0,N
1458565255.0,286047002.8,N
1458565255.9,286047002.8,N
1458565275.8,286047002.5,N
1458565295.6,286047002.9,N
1458565315.4,286047002.2,N
1458565335.3,286047005.7,N
1458565355.1,286047002.8,N
1458565356.0,286047002.8,N
1458565375.8,286046998.1,N
1458565395.7,286046996.8,N
1458565415.5,286046997.3,N
1458565435.3,286046996.6,N
1458565455.2,286046996.6,N
1458565475.9,286047000.6,N
1458565495.7,286046999.2,N
1458565515.5,286046998.4,N
1458565535.4,286046998.2,N
1458565555.2,286047002.7,N
1458565575.0,286046997.5,N
1458565575.9,286046997.5,N
1458565595.8,286046995.6,N
1458565615.6,286046994.9,N
1458565635.4,286046996.2,N
1458565655.3,286046993.3,N
1458565675.1,286046994.0,N
1458565695.8,286046993.0,N
1458565715.7,286046992.0,N
1458565735.5,286046996.0,N
1458565755.3,286046996.4,N
1458565775.2,286046998.0,N
1458565795.9,286046996.5,N
1458565815.7,286046997.3,N
1458565835.6,286046997.0,N
1458565855.4,286046999.4,N
1458565875.2,286047000.8,N
1458565895.0,286046997.9,N
1458565896.0,286046997.9,N
1458565915.8,286046991.7,Y
1458565935.6,286046995.0,P
1458565955.5,286046995.8,P
1458565975.3,286046996.1,P
1458565995.1,286046996.6,Y
1458566015.9,286046998.9,P
1458566035.7,286046999.0,N
1458566055.5,286046999.6,N
1458566075.4,286047002.6,N
1458566095.2,286047006.0,N
1458566115.0,286047001.0,N
1458566115.9,286047001.0,N
1458566135.7,286047001.0,N
1458566155.6,286047002.0,N
1458566175.4,286047002.0,N
1458566195.2,286047003.7,N
1458566215.1,286047001.7,N
1458566216.0,286047001.7,N
1458566235.8,286047002.8,N
1458566255.6,286047001.6,N
1458566275.5,286047002.8,N
1458566295.3,286047002.4,N
1458566315.1,286047002.4,N
1458566335.9,286046999.8,N
1458566355.7,286047001.4,N
1458566375.5,286047000.0,N
1458566395.4,286046998.8,N
1458566415.2,286046998.0,N
1458566435.0,286046997.1,N
1458566435.9,286046997.1,N
1458566455.7,286046996.5,N
1458566475.6,286046994.3,N
1458566495.4,286046990.6,Y
1458566515.2,286046989.0,P
1458566535.1,286046994.8,N
1458566536.0,286046994.8,N
1458566555.8,286046990.7,N
1458566575.7,286046986.9,Y
1458566595.5,286046994.9,P
1458566615.3,286046997.6,P
1458566635.1,286046995.6,N
1458566655.9,286046994.5,Y
1458566675.7,286047003.8,P
1458566695.6,286046996.5,N
1458566715.4,286047001.3,N
1458566735.2,286047005.2,N
1458566755.0,286047003.4,N
1458566756.0,286047003.4,N
1458566775.8,286047003.7,N
1458566795.6,286047006.9,N
1458566815.4,286047007.6,N
1458566835.3,286047007.8,N
1458566855.1,286047007.1,N
1458566875.8,286047007.0,N
1458566895.7,286047010.0,N
1458566915.5,286047006.9,N
1458566935.3,286047008.8,N
1458566955.2,286047005.2,N
1458566975.9,286047004.9,N
1458566995.7,286047004.5,N
1458567015.6,286047004.7,N
1458567035.4,286047003.5,N
1458567055.2,286047004.3,N
1458567075.0,286047003.4,N
1458567076.0,286047003.4,N
1458567095.8,286047003.0,N
1458567115.6,286047006.2,N
1458567135.4,286047008.3,N
1458567155.3,286047010.8,Y
1458567175.1,286047005.8,P
1458567195.8,286047009.2,P
1458567215.7,286047004.7,N
1458567235.5,286047007.1,Y
1458567255.4,286046998.4,P
1458567275.2,286047001.2,N
1458567295.0,286046999.6,N
1458567295.9,286046999.6,N
1458567315.7,286046996.5,N
1458567335.6,286046997.4,N
1458567355.4,286046997.6,N
1458567375.2,286046995.3,N
1458567395.1,286046996.5,N
1458567396.0,286046996.5,N
1458567415.8,286046997.6,N
1458567435.6,286046995.7,N
1458567455.5,286046997.5,N
1458567475.3,286046994.1,N
1458567495.1,286046993.8,N
1458567515.9,286046993.6,N
1458567535.7,286046993.8,N
1458567555.5,286046994.4,N
1458567575.4,286046992.0,N
1458567595.2,286046993.8,N
1458567615.0,286046992.4,N
1458567615.9,286046992.4,N
1458567635.7,286046994.7,N
1458567655.6,286046991.9,N
1458567675.4,286046993.3,N
1458567695.2,286046995.3,N
1458567715.1,286046994.9,N
1458567716.0,286046994.9,N
1458567735.8,286046997.9,N
1458567755.6,286046996.6,N
1458567775.5,286046999.8,N
1458567795.3,286047002.7,N
1458567815.1,286047002.5,N
1458567835.9,286047004.2,N
1458567855.7,286047001.9,N
1458567875.5,286047005.0,N
1458567895.4,286047008.2,N
1458567915.2,286047007.6,N
1458567935.0,286047001.3,N
1458567935.9,286047001.3,N
1458567955.8,286047002.1,N
1458567975.6,286047003.0,N
1458567995.4,286047007.1,N
1458568015.2,286047000.1,N
1458568035.1,286047000.1,N
1458568036.0,286047000.1,N
1458568055.8,286046998.6,N
1458568075.6,286046993.4,N
1458568095.5,286046990.6,N
1458568115.3,286046990.8,N
1458568135.1,286046988.6,N
1458568155.9,286046991.3,N
1458568175.7,286046988.6,N
1458568195.5,286046987.3,N
1458568215.4,286046983.0,N
1458568235.2,286046981.7,N
1458568255.0,286046980.6,N
1458568255.9,286046980.6,N
1458568275.8,286046979.4,N
1458568295.6,286046981.5,N
1458568315.4,286046981.8,N
1458568335.3,286046980.8,N
1458568355.1,286046984.7,N
1458568356.0,286046984.7,N
1458568375.8,286046983.1,N
1458568395.7,286046984.8,N
1458568415.5,286046980.6,N
1458568435.3,286046984.8,N
1458568455.1,286046983.0,N
1458568475.9,286046982.9,N
1458568495.7,286046983.5,N
1458568515.5,286046980.7,N
1458568535.4,286046986.2,N
1458568555.2,286046983.9,N
1458568575.0,286046985.9,N
1458568575.9,286046985.9,N
1458568595.8,286046986.9,Y
1458568615.6,286047005.7,P
1458568635.4,286047007.5,N
1458568655.3,286047007.8,N
1458568675.1,286047009.7,N
1458568695.8,286047007.8,N
1458568715.7,286047006.1,N
1458568735.5,286047008.6,N
1458568755.3,286047007.8,N
1458568775.2,286047010.6,N
1458568795.0,286047010.2,N
1458568795.9,286047010.2,N
